www.pogodaiklimat.ru

Погода и климат >> Архив погоды >> Иран >> Феса


ПОГОДА в Фесе

  • Прогноз погоды в Фесе
  • Монитор погоды в Фесе

АРХИВ ПОГОДЫ в Фесе

Время (UTC), дата Ветер
(напр.,м/с)
 
Видим.   Явления Облачность Т
(С)
Тd
(С)
f
(%)
Тe
(С)
Тes
(С)
Комфортность P
(гПа)
Po
(гПа)
Тmin
(С)
Tmax
(С)
R
(мм)
R24
(мм)
S
(см)
09 14.01 Ю 5 10 км 9/3 1200 м
[Sc Ac As Cs]
+15.4 -0.6 33 +14 +16 1016.8 873.8
12 14.01 ЮЗ 6 10 км 9/1 1200 м
[Sc diur, vesp Ac lent Cs]
+17.6 -7.6 17 +17 +17 1015.1 872.5
15 14.01 штиль 0 10 км 9/0
[Ac trans Cs]
+13.6 +0.3 40 +14 +14 1017.5 873.4 +17.8
18 14.01 СВ 3 10 км 5/0
[Ci sp]
+10.4 -2.2 41 +9 +9 1018.5 874.5
21 14.01 штиль 0 10 км 6/0
[Ci fib]
+8.2 -0.3 55 +8 +8 1018.1 874.9
00 15.01 штиль 0 10 км 5/0
[Ci fib]
+5.2 -1.3 63 +5 +5 1018.7 875.2
03 15.01 штиль 0 10 км 5/0
[Ci fib]
+5.2 -1.3 63 +5 +5 1018.7 875.2
06 15.01 штиль 0 8000 м мгла 5/0
[Cs]
+12.0 +4.1 58 +12 +18 1019.7 876.1
09 15.01 ЮВ 2 8000 м мгла 5/0
[Cs]
+16.2 +2.0 38 +16 +25 1017.6 874.7
12 15.01 ЮВ 2 10 км 6/0
[Ac trans Ci sp]
+17.0 +2.1 37 +17 +19 1016.6 873.4
15 15.01 В 2 10 км 8/1 1200 м
[Sc Ac trans Cs]
+13.8 +5.0 55 +13 +13 1018.9 874.4 +17.0
18 15.01 З 2 10 км 8/0
[Ac trans Cs]
+12.0 +5.1 63 +11 +11 1018.6 875.6
21 15.01 штиль 0 10 км 4/0
[Ac trans Ci sp]
+8.2 +4.8 79 +7 +7 1017.0 874.3
00 16.01 штиль 0 10 км ясно +6.2 +3.6 83 +5 +5 1016.5 873.5
03 16.01 СЗ 3 10 км 4/0
[Ac trans Ci sp]
+5.0 +3.2 88 +1 +1 1017.6 873.4 +4.4
06 16.01 штиль 0 10 км 3/0
[Ci fib]
+11.6 +5.1 64 +11 +18 1018.6 875.5
09 16.01 ЮВ 2 10 км 3/0
[Ci fib]
+17.8 +6.5 47 +18 +27 1015.7 873.6
12 16.01 ЮВ 4 10 км 6/0
[Ac trans Ci fib]
+20.6 +3.8 33 +21 +22 комфорт 1013.3 871.6
15 16.01 Ю 5 10 км 9/1 1200 м
[Sc Ac trans Ci sp]
+17.2 +1.2 34 +17 +17 1015.0 871.9 +20.6
18 16.01 штиль 0 10 км 6/0
[Ac trans Ci sp]
+14.6 +4.1 49 +15 +15 1014.5 872.5
21 16.01 штиль 0 10 км 6/0
[Ac trans Cs]
+11.2 +3.6 59 +11 +11 1012.8 871.7
00 17.01 З 2 10 км 6/0
[Cs]
+10.2 +2.9 60 +9 +9 1011.1 870.6
03 17.01 штиль 0 10 км 9/1 1200 м
[Sc Ac As Ci sp]
+10.0 +3.6 64 +10 +10 1011.6 870.3 +9.0
06 17.01 СВ 2 10 км 5/1 1200 м
[Sc Ac As]
+12.8 +4.2 56 +12 +16 1011.9 870.6
09 17.01 З 10 7000 м пыльный позёмок 8/6 900 м
[Cb calv Ac As]
+16.6 +1.2 35 +15 +15 1008.8 867.9
12 17.01 Ю 13 6000 м гроза без осадков {ливн. осадки} 9/9 750 м
[Cb cap Ac As]
+15.6 +9.1 65 +13 +13 1005.0 864.5 0.0
15 17.01 ЮЗ 5 7000 м дымка {гроза, ливн. осадки} 9/8 900 м
[Cb calv Ac As]
+12.8 +11.0 89 +11 +11 1008.8 867.1 +18.8
18 17.01 ЮЗ 7 7000 м мгла {гроза} 4/3 1200 м
[Sc diur, vesp Ac trans]
+12.0 +7.0 71 +9 +9 1010.3 868.7 11
21 17.01 З 3 7000 м дымка 3/3 1200 м
[Sc diur, vesp]
+8.4 +5.5 82 +6 +6 1011.0 869.3
00 18.01 Ю 2 7000 м дымка ясно +2.4 +1.4 93 -1 -1 1013.2 869.5
03 18.01 штиль 0 7000 м дымка 6/0
[Ac trans Ci sp]
+1.2 +1.2 100 -0 -0 1015.2 870.2 +1.2
06 18.01 штиль 0 8000 м мгла 8/0
[Ac trans Ci sp]
+8.4 +4.6 77 +8 +13 1014.8 871.5
09 18.01 ЮВ 4 8000 м мгла 8/0
[Cs]
+12.0 +4.7 61 +10 +15 1012.9 869.9
12 18.01 ЮЗ 5 10 км 6/0
[Ci sp]
+13.8 +0.1 39 +12 +13 1012.2 868.2
15 18.01 Ю 4 10 км 5/0
[Ci sp]
+9.0 -1.0 50 +7 +7 1014.8 868.9 +14.0
18 18.01 штиль 0 10 км 5/0
[Ci fib]
+5.4 +0.1 69 +5 +5 1014.6 869.7
21 18.01 штиль 0 10 км 4/0
[Ci fib]
+2.0 -0.5 83 +1 +1 1014.2 869.4
00 19.01 штиль 0 10 км ясно -0.2 -1.8 89 -1 -1 1013.8 868.9
03 19.01 штиль 0 10 км ясно -1.8 -2.6 94 -3 -3 1015.5 868.8 -2.0
06 19.01 штиль 0 10 км ясно +5.0 -1.0 65 +4 +12 1016.2 870.2
09 19.01 ЮВ 3 10 км ясно +10.8 -6.0 30 +10 +17 1013.7 868.5
12 19.01 ЮЗ 7 10 км ясно +12.6 -8.6 22 +10 +11 1012.4 867.2
15 19.01 З 4 10 км ясно +6.8 -9.4 30 +4 +4 1015.6 868.2 +12.6
18 19.01 СЗ 3 10 км ясно +2.6 -7.1 49 -1 -1 1016.7 869.8
21 19.01 СЗ 2 10 км ясно +1.6 -7.2 52 -1 -1 870.2
00 20.01 С 4 10 км ясно -1.0 -5.3 73 -6 -6 1016.4 870.6
03 20.01 штиль 0 10 км ясно -1.8 -7.8 64 -3 -3 1020.0 871.9 -3.2
06 20.01 штиль 0 10 км ясно +5.2 -4.6 49 +5 +12 1021.0 873.5
09 20.01 штиль 0 10 км ясно +11.0 -13.0 17 +11 +24 опасность
простуды
1018.7 872.6
12 20.01 ЮВ 3 10 км ясно +11.8 -9.6 21 +11 +13 1017.1 870.9
15 20.01 ЮВ 2 10 км ясно +7.8 -5.7 38 +7 +7 1019.2 871.5 +12.2
18 20.01 штиль 0 10 км ясно +2.4 -5.2 57 +2 +2 1019.8 872.5
21 20.01 СЗ 3 10 км ясно -1.2 -6.2 69 -6 -6 872.9
00 21.01 СЗ 4 10 км ясно +0.8 -7.0 56 -4 -4 1018.9 872.9
03 21.01 С 2 10 км ясно -2.8 -7.7 69 -7 -7 1021.8 873.5 -2.8
06 21.01 штиль 0 10 км 1/0
[Ci fib]
+4.2 -6.2 47 +4 +11 1023.1 875.0

 

Местоположение метеостанции Феса (Иран): широта 28.97 долгота 53.68 высота над уровнем моря 1288 м.

В архиве по умолчанию представлена погода в Фесе за последнюю неделю. Архивные данные за месяц целиком и за предыдущие месяцы, начиная с января 2011 года, Вы можете получить, выбрав интересующий диапазон дат из раскрывающегося списка и нажав кнопку "Ввод!".


*Определитесь, кто Вы:
робот инопланетянин человек

Внимание! Время в таблицах - всемирное. Для получения местного времени необходимо прибавить поправку, которая равна 3.5 ч.

Смотрите также архив погоды в соседних городах и на ближайших метеорологических станциях:

Погода в Ширазе (Иран) (128 км)
Погода в Сирджане (Иран) (206 км)
Погода в Бендер-Дейере (Иран) (213 км)
Погода в Абаде (Иран) (264 км)
Погода в Бушире (Иран) (275 км)
Погода на Острове Киш (Иран) (276 км)
Погода в Ясудже (Иран) (277 км)
Погода в Бушир аэропорту (Иран) (277 км)
Погода в Бафте (Иран) (282 км)
Погода в Бендер-Ленге (Иран) (289 км)

Пояснения к столбцам:

Ветер - указаны скорость ветра в м/с - средняя за 10 мин, порывы в срок и между сроками (в фигурных скобках) и направление, откуда дует ветер: С - северный, СВ - северо-восточный, В - восточный, ЮВ - юго-восточный, Ю - южный, ЮЗ - юго-западный, З - западный, СЗ - северо-западный.
Видимость - горизонтальная дальность видимости в метрах или километрах. При видимости от 1 до 10 км при отсутствии осадков обычно наблюдается дымка, при ухудшении видимости до 1 км и менее - туман. В сухую погоду видимость может ухудшаться дымом, пылью или мглою.
Явления - указаны атмосферные явления, наблюдавшиеся в срок или в последний час перед сроком; фигурными скобками обозначены явления, наблюдавшиеся между сроками (за 1-3 часа до срока); квадратными скобками обозначены град или гололедные отложения с указанием их диаметра в мм.
Облачность - указаны через наклонную черту общая и нижняя облачность в баллах и высота нижней границы облаков в метрах; квадратными скобками обозначены формы облаков: Ci - перистые, Cs - перисто-слоистые, Cc - перисто-кучевые, Ac - высококучевые, As - высокослоистые, Sc - слоисто-кучевые, Ns - слоисто-дождевые, Cu - кучевые, Cb - кучево-дождевые. Подробнее классификацию облаков см. в Атласе облаков (PDF).
T - Температура воздуха - температура, измеренная на высоте 2 м над землей.
Td - Температура точки росы - температура, при понижении до которой содержащийся в воздухе водяной пар достигнет насыщения.
f - Относительная влажность воздуха - влажноcть воздуха, измеренная на высоте 2 м над землей.
Te - Эффективная температура - температура, которую ощущает одетый по сезону человек в тени. Характеристика душности погоды. При расчете учитывается влияние влажности воздуха и скорости ветра на теплоощущения человека.
Tes - Эффективная температура на солнце - температура, которую ощущает человек, с поправкой на солнечный нагрев. Характеристика знойности погоды. Зависит от высоты солнца над горизонтом, облачности и скорости ветра. Ночью, в пасмурную погоду, а также при ветре 12 м/с и более поправка равна нулю.
P - Атмосферное давление - приведенное к уровню моря атмосферное давление.
Po - Атмосферное давление - измеренное на уровне метеостанции атмосферное давление.
Tmin - Минимальная температура - минимум температуры воздуха на высоте 2 м над землей.
Tmax - Максимальная температура - максимум температуры воздуха на высоте 2 м над землей.
R - Количество осадков - Количество выпавших осадков за период времени, мм. При наведении курсора мыши на число - период времени, за который выпало указанное количество осадков.
R24 - Количество осадков - Количество выпавших осадков за 24 часа, мм.
S - Снежный покров - Высота снежного покрова, см. При наведении курсора мыши на число - состояние снежного покрова и степень покрытия местности в баллах.